Weather reports worldwide

Advertisment
Luqa, Malta (16597): temperature & dewpoint: 15.08.2017 12:00:00 - 21.08.2017 12:00:00 (CEST)Luqa, Malta (16597): wind speed: 15.08.2017 12:00:00 - 21.08.2017 12:00:00 (CEST)Luqa, Malta (16597): wind direction: 15.08.2017 12:00:00 - 21.08.2017 12:00:00 (CEST)Luqa, Malta (16597): reduced air pressure: 15.08.2017 12:00:00 - 21.08.2017 12:00:00 (CEST)Luqa, Malta (16597): visibility: 15.08.2017 12:00:00 - 21.08.2017 12:00:00 (CEST)
Date & Time tt [°C] td [°C] ff [km/h] ff [kn] dd ppp [hPa] vv [km]
21.08.2017 12:00:00 29,0 20,0 13 7 ENE - 10
21.08.2017 11:00:00 29,7 17,5 15 8 NNE 1013,3 10
21.08.2017 10:00:00 29,0 19,0 21 11 N - 10
21.08.2017 09:00:00 28,0 20,0 24 13 N - 10
21.08.2017 08:00:00 25,7 22,2 24 13 NNW 1012,8 10
21.08.2017 07:00:00 25,0 22,0 24 13 NNW - 10
21.08.2017 06:00:00 24,0 22,0 29 16 NNW - 10
21.08.2017 05:00:00 24,7 22,2 29 16 NNW 1011,8 10
21.08.2017 04:00:00 25,0 23,0 26 14 NW - 10
21.08.2017 03:00:00 25,0 23,0 26 14 NW - 10
21.08.2017 02:00:00 25,6 23,3 18 10 NW 1012,4 10
21.08.2017 01:00:00 26,0 23,0 18 10 NW - 10
21.08.2017 00:00:00 26,0 23,0 21 11 NW - 10
20.08.2017 23:00:00 25,8 22,6 13 7 NW 1013,4 10
20.08.2017 22:00:00 26,0 22,0 15 8 WNW - 10
20.08.2017 21:00:00 26,0 22,0 18 10 WNW - 10
20.08.2017 20:00:00 26,6 22,2 22 12 WNW 1013,3 10
20.08.2017 19:00:00 28,0 22,0 21 11 WNW - 10
20.08.2017 18:00:00 28,0 22,0 22 12 WNW - 10
20.08.2017 17:00:00 30,0 21,0 29 16 NW - 10
20.08.2017 16:00:00 31,0 21,0 24 13 NW - 10
20.08.2017 15:00:00 31,0 20,0 24 13 WNW - 10
20.08.2017 14:00:00 31,6 18,8 24 13 WNW 1015,0 10
20.08.2017 13:00:00 32,0 18,0 22 12 WNW - 10
20.08.2017 12:00:00 32,0 15,0 24 13 WNW - 10
20.08.2017 11:00:00 31,0 18,3 21 11 W 1015,5 10
20.08.2017 10:00:00 31,0 17,0 18 10 WNW - 10
20.08.2017 09:00:00 30,0 18,0 16 9 WNW - 10
20.08.2017 08:00:00 27,1 19,5 18 10 WNW 1014,9 10
20.08.2017 07:00:00 26,0 22,0 9 5 WNW - 10
20.08.2017 06:00:00 26,0 13,0 9 5 W - 10
20.08.2017 05:00:00 25,0 15,1 9 5 W 1014,6 10
20.08.2017 04:00:00 25,0 19,0 5 3 W - 10
20.08.2017 03:00:00 25,0 17,0 8 4 WNW - 10
20.08.2017 02:00:00 24,7 19,8 5 3 W 1015,2 10
20.08.2017 01:00:00 25,0 21,0 5 3 W - 10
20.08.2017 00:00:00 25,0 22,0 4 2 W - 10
19.08.2017 23:00:00 25,6 21,9 5 3 NW 1016,0 10
19.08.2017 22:00:00 26,0 22,0 4 2 - - 10
19.08.2017 21:00:00 27,0 19,0 9 5 NNW - 10
19.08.2017 20:00:00 28,8 16,0 8 4 NNW 1015,2 10
19.08.2017 19:00:00 31,0 15,0 5 3 WSW - 10
19.08.2017 18:00:00 32,0 17,0 8 4 ENE - 10
19.08.2017 17:00:00 33,0 15,8 13 7 WSW 1014,9 10
19.08.2017 16:00:00 33,0 13,0 16 9 WSW - 10
19.08.2017 15:00:00 33,0 12,0 13 7 WSW - 10
19.08.2017 14:00:00 32,9 14,3 13 7 WSW 1016,2 10
19.08.2017 13:00:00 33,0 14,0 13 7 W - 10
19.08.2017 12:00:00 33,0 14,0 13 7 WSW - 10
19.08.2017 11:00:00 33,2 13,4 11 6 WSW 1016,2 10
19.08.2017 10:00:00 33,0 14,0 5 3 - - 10
19.08.2017 09:00:00 31,0 16,0 4 2 - - 10
19.08.2017 08:00:00 26,2 19,4 5 3 NNW 1015,8 10
19.08.2017 07:00:00 24,0 21,0 5 3 NW - 10
19.08.2017 06:00:00 23,0 23,0 5 3 NW - 9
19.08.2017 05:00:00 24,0 22,9 8 4 NNW 1014,8 9
19.08.2017 04:00:00 24,0 23,0 8 4 NW - 8
19.08.2017 03:00:00 25,0 23,0 4 2 - - 8
19.08.2017 02:00:00 24,5 22,0 8 4 NW 1015,7 10
19.08.2017 01:00:00 25,0 22,0 5 3 NNW - 10
19.08.2017 00:00:00 25,0 21,0 8 4 NNW - 10
18.08.2017 23:00:00 25,8 21,0 2 1 - 1016,4 10
18.08.2017 22:00:00 27,0 21,0 5 3 ESE - 10
18.08.2017 21:00:00 27,0 22,0 5 3 ESE - 10
18.08.2017 20:00:00 27,9 19,8 8 4 ESE 1015,5 10
18.08.2017 19:00:00 29,0 20,0 9 5 SSE - 10
18.08.2017 18:00:00 30,0 20,0 11 6 SE - 10
18.08.2017 17:00:00 30,9 19,4 11 6 ESE 1015,2 10
18.08.2017 16:00:00 31,0 19,0 13 7 E - 10
18.08.2017 15:00:00 31,0 18,0 13 7 ESE - 10
18.08.2017 14:00:00 31,6 18,5 15 8 ESE 1016,0 10
18.08.2017 13:00:00 31,0 19,0 15 8 E - 10
18.08.2017 12:00:00 31,0 20,0 16 9 E - 10
18.08.2017 11:00:00 29,5 21,2 15 8 ENE 1016,4 10
18.08.2017 10:00:00 30,0 21,0 13 7 ENE - 10
18.08.2017 09:00:00 29,0 21,0 15 8 ENE - 10
18.08.2017 08:00:00 27,1 20,9 15 8 ENE 1015,7 10
18.08.2017 07:00:00 26,0 20,0 9 5 E - 10
18.08.2017 06:00:00 24,0 21,0 5 3 NE - 10
18.08.2017 05:00:00 23,8 20,8 4 2 - 1014,6 10
18.08.2017 04:00:00 24,0 21,0 2 1 NNE - 10
18.08.2017 03:00:00 25,0 21,0 8 4 W - 10
18.08.2017 02:00:00 25,1 22,2 5 3 W 1015,2 10
18.08.2017 01:00:00 25,0 22,0 4 2 WSW - 10
18.08.2017 00:00:00 26,0 21,0 2 1 - - 10
17.08.2017 23:00:00 26,6 19,7 8 4 W 1015,1 10
17.08.2017 22:00:00 27,0 16,0 8 4 WNW - 10
17.08.2017 21:00:00 27,0 17,0 11 6 NW - 10
17.08.2017 20:00:00 28,9 12,4 13 7 NW 1014,8 10
17.08.2017 19:00:00 31,0 9,0 18 10 WNW - 10
17.08.2017 18:00:00 32,0 10,0 18 10 WNW - 10
17.08.2017 17:00:00 33,2 10,0 21 11 W 1014,6 10
17.08.2017 16:00:00 34,0 11,0 15 8 NW - 10
17.08.2017 15:00:00 34,0 12,0 15 8 WNW - 10
17.08.2017 14:00:00 34,0 13,9 11 6 W 1015,6 10
17.08.2017 13:00:00 33,0 16,0 8 4 NE - 10
17.08.2017 12:00:00 32,0 17,0 11 6 SSW - 10
17.08.2017 11:00:00 32,3 13,3 5 3 - 1015,8 10
17.08.2017 10:00:00 31,0 15,0 8 4 E - 10
17.08.2017 09:00:00 28,0 21,0 8 4 N - 10
17.08.2017 08:00:00 25,6 20,4 9 5 NNW 1015,5 10
17.08.2017 07:00:00 23,0 20,0 5 3 NNW - 10
17.08.2017 06:00:00 23,0 19,0 5 3 NW - 10
17.08.2017 05:00:00 22,6 16,5 5 3 NNW 1015,0 10
17.08.2017 04:00:00 23,0 18,0 5 3 WNW - 10
17.08.2017 03:00:00 23,0 20,0 5 3 W - 10
17.08.2017 02:00:00 23,3 20,3 5 3 WSW 1015,3 10
17.08.2017 01:00:00 24,0 20,0 5 3 WSW - 10
17.08.2017 00:00:00 24,0 20,0 2 1 - - 10
16.08.2017 23:00:00 24,9 20,8 5 3 W 1015,9 10
16.08.2017 22:00:00 25,0 20,0 4 2 NNW - 10
16.08.2017 21:00:00 25,0 21,0 8 4 NNW - 10
16.08.2017 20:00:00 27,2 18,8 11 6 NNW 1015,2 10
16.08.2017 19:00:00 29,0 17,0 15 8 WNW - 10
16.08.2017 18:00:00 30,0 17,0 8 4 - - 10
16.08.2017 17:00:00 31,4 18,4 11 6 E 1015,2 10
16.08.2017 16:00:00 31,0 20,0 11 6 E - 10
16.08.2017 15:00:00 31,0 21,0 11 6 ENE - 10
16.08.2017 14:00:00 29,8 21,5 11 6 ENE 1016,7 10
16.08.2017 13:00:00 30,0 21,0 13 7 NE - 10
16.08.2017 12:00:00 30,0 21,0 11 6 ENE - 10
16.08.2017 11:00:00 29,8 19,5 11 6 ENE 1017,1 10
16.08.2017 10:00:00 29,0 19,0 5 3 - - 10
16.08.2017 09:00:00 28,0 18,0 8 4 N - 10
16.08.2017 08:00:00 25,0 21,7 8 4 NNW 1017,2 10
16.08.2017 07:00:00 23,0 21,0 5 3 WNW - 10
16.08.2017 06:00:00 23,0 21,0 8 4 NW - 10
16.08.2017 05:00:00 22,8 20,5 9 5 W 1016,6 10
16.08.2017 04:00:00 23,0 20,0 8 4 WSW - 10
16.08.2017 03:00:00 23,0 20,0 4 2 NW - 10
16.08.2017 02:00:00 23,5 19,0 5 3 WNW 1017,5 10
16.08.2017 01:00:00 24,0 19,0 9 5 WNW - 10
16.08.2017 00:00:00 24,0 19,0 5 3 WNW - 10
15.08.2017 23:00:00 25,0 17,7 5 3 - 1018,6 10
15.08.2017 22:00:00 25,0 18,0 8 4 W - 10
15.08.2017 21:00:00 26,0 18,0 5 3 WSW - 10
15.08.2017 20:00:00 26,9 19,8 5 3 ESE 1017,8 10
15.08.2017 19:00:00 29,0 15,0 4 2 - - 10
15.08.2017 18:00:00 29,0 19,0 8 4 NE - 10
15.08.2017 17:00:00 29,8 19,7 11 6 NE 1018,4 10
15.08.2017 16:00:00 30,0 19,0 15 8 ENE - 10
15.08.2017 15:00:00 30,0 19,0 16 9 WSW - 10
15.08.2017 14:00:00 29,7 19,0 13 7 SW 1019,3 10
15.08.2017 13:00:00 30,0 19,0 9 5 SSW - 10
15.08.2017 12:00:00 30,0 18,0 9 5 SW - 10

tt = temperature
td = dewpoint
ff = wind speed
dd = wind direction
ppp = reduced air pressure
vv = visibility

Next stations